1536069600.16,56463,20.06,73874.3,14.43,-9.49,-9.23,0,*41
1536069601.38,56464,20.06,73872.0,14.43,-9.23,-9.11,0,*4B
1536069602.57,56465,20.06,73872.8,14.43,-9.27,-9.23,0,*4F
1536069603.77,56466,20.06,73870.3,14.43,-8.93,-8.85,0,*4F
1536069605.01,56467,20.06,73872.5,14.45,-9.01,-8.81,0,*46
1536069606.25,56468,20.06,73872.5,14.45,-8.81,-8.63,0,*4C
1536069607.46,56469,20.06,73868.8,14.45,-8.89,-8.67,0,*41
1536069608.67,56470,20.06,73874.0,14.45,-8.67,-8.63,0,*4D
1536069609.88,56471,20.06,73872.5,14.47,-8.81,-8.89,0,*42
1536069611.1,56472,20.06,73872.8,14.47,-9.75,-9.61,0,*4C
1536069612.29,56473,20.06,73872.0,14.47,-9.75,-9.71,0,*4C
1536069613.51,56474,20.06,73872.5,14.47,-9.11,-9.05,0,*4A
1536069614.75,56475,20.06,73874.5,14.47,-9.45,-9.45,0,*4E
1536069615.95,56476,20.13,73872.0,14.47,-8.89,-8.89,0,*4D
1536069617.18,56477,20.06,73870.5,14.47,-8.81,-8.81,0,*4C
1536069618.45,56478,20.06,73870.0,14.49,-8.51,-8.51,0,*4D
1536069619.67,56479,20.06,73872.0,14.49,-8.97,-9.01,0,*42
1536069620.89,56480,20.06,73868.8,14.49,-8.85,-8.89,0,*46
1536069622.13,56481,20.06,73870.8,14.53,-9.15,-9.27,0,*41
1536069623.34,56482,20.06,73874.0,14.53,-8.81,-8.59,0,*46
1536069624.55,56483,20.06,73874.0,14.55,-8.59,-8.59,0,*44
1536069625.75,56484,20.06,73870.5,14.53,-8.97,-9.01,0,*4B
1536069626.97,56485,20.13,73872.0,14.55,-8.71,-8.67,0,*45
1536069628.19,56486,20.06,73874.3,14.57,-8.81,-8.93,0,*40
1536069629.38,56487,20.06,73870.0,14.57,-8.17,-8.25,0,*43
1536069630.6,56488,20.06,73872.0,14.57,-8.37,-8.51,0,*4D
1536069631.87,56489,20.06,73872.0,14.59,-8.07,-8.11,0,*45
1536069633.09,56490,20.06,73874.8,14.59,-8.59,-8.63,0,*43
1536069634.27,56491,20.06,73874.3,14.61,-8.33,-8.63,0,*45
1536069635.51,56492,20.06,73872.3,14.61,-7.69,-7.95,0,*40
1536069636.74,56493,20.13,73872.5,14.63,-8.85,-9.01,0,*4D
1536069637.95,56494,20.06,73874.8,14.63,-8.45,-8.55,0,*46
1536069639.16,56495,20.06,73872.0,14.63,-8.59,-8.71,0,*4C
1536069640.38,56496,20.13,73872.8,14.67,-8.75,-8.85,0,*4E
1536069641.59,56497,20.06,73868.5,14.67,-8.67,-8.93,0,*4B
1536069642.78,56498,20.06,73872.3,14.65,-8.37,-8.55,0,*49
1536069643.98,56499,20.06,73872.5,14.67,-8.29,-8.55,0,*45
1536069645.2,56500,20.06,73874.0,14.67,-8.25,-8.41,0,*4D
1536069646.41,56501,20.13,73872.0,14.69,-8.21,-8.51,0,*47
1536069647.66,56502,20.06,73872.0,14.69,-7.77,-7.91,0,*4B
1536069648.87,56503,20.13,73874.8,14.71,-8.37,-8.63,0,*4A
1536069650.09,56504,20.13,73874.3,14.71,-8.37,-8.59,0,*44
1536069651.33,56505,20.13,73874.8,14.71,-7.95,-8.25,0,*49
1536069652.55,56506,20.13,73872.5,14.77,-8.11,-8.37,0,*4C
1536069653.82,56507,20.13,73874.3,14.75,-9.11,-9.41,0,*4E
1536069655.05,56508,20.06,73870.5,14.77,-9.45,-9.67,0,*46
1536069656.27,56509,20.13,73872.5,14.77,-8.51,-8.85,0,*4E
1536069657.48,56510,20.13,73870.5,14.81,-8.81,-9.19,0,*46
1536069658.72,56511,20.06,73870.0,14.79,-8.21,-8.51,0,*47
1536069659.97,56512,20.06,73868.5,14.79,-9.05,-9.41,0,*43
1536069661.21,56513,20.06,73868.3,14.79,-8.21,-8.51,0,*45
1536069662.4,56514,20.06,73872.0,14.81,-8.63,-8.93,0,*4D
1536069663.63,56515,20.13,73874.3,14.81,-8.11,-8.37,0,*47
1536069664.85,56516,20.06,73870.3,14.83,-8.17,-8.45,0,*45
1536069666.1,56517,20.06,73872.0,14.83,-9.01,-9.41,0,*47
1536069667.32,56518,20.06,73872.0,14.85,-9.11,-9.67,0,*4B
1536069668.51,56519,20.06,73872.0,14.85,-8.33,-8.85,0,*46
1536069669.7,56520,20.13,73872.3,14.85,-8.75,-9.27,0,*47
1536069670.92,56521,20.13,73874.3,14.83,-8.45,-8.85,0,*4A
1536069672.15,56522,20.06,73868.3,14.85,-9.15,-9.67,0,*46
1536069673.34,56523,20.06,73872.8,14.85,-8.59,-8.97,0,*40
1536069674.53,56524,20.13,73872.3,14.85,-8.75,-9.23,0,*47
1536069675.78,56525,20.13,73872.3,14.85,-9.37,-9.83,0,*4B
1536069676.97,56526,20.06,73870.3,14.85,-9.27,-9.79,0,*4C
1536069678.19,56527,20.13,73874.5,14.85,-9.41,-9.79,0,*4D
1536069679.41,56528,20.13,73872.0,14.85,-9.49,-9.93,0,*4E
1536069680.66,56529,20.06,73870.3,14.83,-9.83,-10.31,0,*7F
1536069681.87,56530,20.06,73872.0,14.85,-9.57,-10.09,0,*73
1536069683.14,56531,20.13,73870.3,14.83,-9.37,-9.83,0,*48
1536069684.35,56532,20.06,73872.0,14.85,-8.97,-9.57,0,*4F
1536069685.55,56533,20.06,73868.8,14.85,-9.23,-9.71,0,*44
1536069686.77,56534,20.13,73874.0,14.85,-8.71,-9.15,0,*47
1536069687.97,56535,20.13,73874.0,14.85,-8.71,-9.23,0,*43
1536069689.22,56536,20.13,73874.0,14.83,-8.89,-9.49,0,*4D
1536069690.41,56537,20.13,73872.0,14.85,-8.55,-9.01,0,*47
1536069691.63,56538,20.13,73870.0,14.87,-8.25,-8.71,0,*4B
1536069692.89,56539,20.13,73872.5,14.87,-8.85,-9.53,0,*41
1536069694.08,56540,20.06,73870.3,14.89,-8.63,-9.05,0,*4A
1536069695.31,56541,20.13,73870.8,14.89,-9.05,-9.61,0,*48
1536069696.53,56542,20.06,73870.8,14.89,-8.51,-8.93,0,*47
1536069697.74,56543,20.13,73872.0,14.91,-8.59,-9.23,0,*4D
1536069699.0,56544,20.13,73874.0,14.91,-8.85,-9.53,0,*4C
1536069700.24,56545,20.13,73872.0,14.91,-9.37,-9.97,0,*4D
1536069701.47,56546,20.13,73870.5,14.91,-9.23,-9.79,0,*4B
1536069702.69,56547,20.13,73872.0,14.91,-9.27,-9.93,0,*4A
1536069703.96,56548,20.13,73872.3,14.91,-9.37,-9.83,0,*45
1536069705.21,56549,20.13,73872.0,14.91,-9.41,-10.09,0,*7F
1536069706.46,56550,20.13,73870.8,14.91,-9.45,-10.05,0,*7F
1536069707.68,56551,20.13,73874.0,14.91,-8.97,-9.67,0,*4C
1536069708.91,56552,20.13,73872.5,14.93,-9.37,-10.05,0,*7A
1536069710.16,56553,20.13,73874.0,14.91,-9.27,-9.83,0,*4E
1536069711.36,56554,20.13,73872.3,14.93,-9.27,-10.05,0,*7D
1536069712.61,56555,20.13,73874.3,14.91,-9.15,-9.71,0,*44
1536069713.81,56556,20.13,73874.5,14.93,-9.27,-9.93,0,*48
1536069715.06,56557,20.13,73872.8,14.91,-8.89,-9.53,0,*42
1536069716.29,56558,20.13,73870.8,14.93,-9.37,-9.97,0,*43
1536069717.54,56559,20.13,73872.5,14.91,-9.11,-9.67,0,*4B
1536069718.73,56560,20.13,73874.8,14.93,-9.23,-9.79,0,*4D
1536069719.99,56561,20.06,73868.8,14.91,-8.89,-9.53,0,*47
1536069721.22,56562,20.13,73872.3,14.93,-9.15,-9.71,0,*42
1536069722.42,56563,20.13,73872.3,14.93,-8.85,-9.27,0,*48
1536069723.62,56564,20.13,73874.8,14.93,-8.71,-9.27,0,*44
1536069724.84,56565,20.13,73872.8,14.95,-8.37,-8.97,0,*4B
1536069726.09,56566,20.13,73870.5,14.95,-8.85,-9.49,0,*43
1536069727.31,56567,20.13,73872.0,14.99,-8.41,-9.19,0,*43
1536069728.53,56568,20.13,73870.8,14.99,-8.63,-9.27,0,*41
1536069729.78,56569,20.13,73874.0,14.99,-8.51,-9.05,0,*41
1536069731.04,56570,20.13,73874.3,14.99,-8.81,-9.45,0,*40
1536069732.27,56571,20.13,73874.3,15.01,-9.15,-9.97,0,*42
1536069733.55,56572,20.13,73872.5,14.99,-9.15,-9.83,0,*44
1536069734.77,56573,20.13,73872.5,14.99,-9.05,-9.75,0,*4D
1536069736.03,56574,20.13,73872.3,14.99,-9.49,-10.19,0,*70
1536069737.24,56575,20.13,73872.5,14.99,-9.97,-10.57,0,*78
1536069738.49,56576,20.13,73872.0,14.99,-9.57,-10.27,0,*70
1536069739.75,56577,20.13,73872.8,14.99,-9.45,-10.19,0,*7F
1536069740.99,56578,20.13,73874.3,14.95,-9.89,-10.71,0,*72
1536069742.24,56579,20.13,73870.8,14.99,-9.89,-10.67,0,*78
1536069743.48,56580,20.13,73872.3,14.99,-9.57,-10.45,0,*7D
1536069744.73,56581,20.13,73874.8,14.95,-9.61,-10.49,0,*79
1536069745.98,56582,20.13,73874.0,14.95,-9.53,-10.23,0,*77
1536069747.24,56583,20.13,73874.5,14.95,-9.41,-10.19,0,*7C
1536069748.46,56584,20.13,73872.5,14.99,-9.19,-10.09,0,*7B
1536069749.69,56585,20.13,73872.3,14.95,-8.97,-9.75,0,*42
1536069750.95,56586,20.13,73874.0,14.99,-8.81,-9.61,0,*4F
1536069752.21,56587,20.13,73872.0,14.95,-9.37,-10.19,0,*79
1536069753.44,56588,20.13,73874.0,14.95,-9.05,-9.89,0,*46
1536069754.67,56589,20.13,73874.3,14.95,-9.23,-10.05,0,*7F
1536069755.94,56590,20.13,73878.5,14.99,-9.49,-10.41,0,*77
1536069757.22,56591,20.13,73872.5,14.99,-9.49,-10.41,0,*76
1536069758.45,56592,20.13,73872.3,14.95,-9.75,-10.57,0,*71
1536069759.68,56593,20.13,73870.3,14.95,-9.67,-10.49,0,*7C
1536069760.9,56594,20.13,73872.3,14.95,-9.79,-10.57,0,*7B
1536069762.16,56595,20.13,73872.3,14.95,-9.49,-10.31,0,*79
1536069763.39,56596,20.13,73874.5,14.93,-9.37,-10.23,0,*76
1536069764.62,56597,20.13,73874.8,14.93,-9.37,-10.09,0,*7F
1536069765.82,56598,20.13,73874.8,14.93,-9.01,-9.93,0,*4E
1536069767.07,56599,20.13,73876.0,14.95,-8.59,-9.53,0,*49
1536069768.29,56600,20.13,73874.3,14.95,-8.41,-9.23,0,*44
1536069769.55,56601,20.13,73874.0,14.99,-9.37,-10.19,0,*78
1536069770.77,56602,20.13,73872.3,14.95,-9.67,-10.57,0,*78
1536069771.99,56603,20.13,73876.3,14.99,-9.89,-10.89,0,*76
1536069773.24,56604,20.13,73872.3,14.95,-9.75,-10.63,0,*7A
1536069774.52,56605,20.13,73872.3,14.99,-9.45,-10.41,0,*74
1536069775.78,56606,20.13,73874.3,14.95,-9.41,-10.45,0,*7B
1536069777.04,56607,20.13,73872.3,14.95,-9.49,-10.35,0,*75
1536069778.27,56608,20.13,73874.8,14.95,-9.31,-10.23,0,*72
1536069779.49,56609,20.13,73870.8,14.95,-10.05,-11.01,0,*4D
1536069780.72,56610,20.13,73870.8,14.95,-9.93,-10.97,0,*7C
1536069781.97,56611,20.13,73874.5,14.93,-9.53,-10.41,0,*7C
1536069783.17,56612,20.13,73872.5,14.93,-9.67,-10.53,0,*7B
1536069784.45,56613,20.13,73872.8,14.91,-9.41,-10.41,0,*7F
1536069785.69,56614,20.13,73872.0,14.93,-9.71,-10.67,0,*7D
1536069786.92,56615,20.13,73870.8,14.93,-9.71,-10.75,0,*7F
1536069788.17,56616,20.13,73870.8,14.91,-9.45,-10.53,0,*7D
1536069789.41,56617,20.13,73872.0,14.91,-9.53,-10.49,0,*70
1536069790.68,56618,20.13,73876.3,14.91,-9.57,-10.75,0,*74
1536069791.94,56619,20.13,73872.3,14.91,-9.79,-10.75,0,*79
1536069793.14,56620,20.13,73872.3,14.93,-9.27,-10.27,0,*7D
1536069794.35,56621,20.13,73872.0,14.93,-9.23,-10.23,0,*7C
1536069795.6,56622,20.13,73876.5,14.91,-9.71,-10.79,0,*75
1536069796.85,56623,20.13,73872.8,14.91,-9.53,-10.53,0,*7C
1536069798.1,56624,20.13,73874.3,14.91,-9.41,-10.53,0,*78
1536069799.33,56625,20.13,73874.0,14.91,-8.85,-9.97,0,*40
1536069800.57,56626,20.13,73874.5,14.91,-8.75,-9.83,0,*49
1536069801.84,56627,20.13,73874.3,14.91,-9.15,-10.19,0,*74
1536069803.07,56628,20.13,73874.0,14.91,-8.33,-9.57,0,*4C
1536069804.27,56629,20.13,73872.3,14.93,-8.85,-9.97,0,*4E
1536069805.47,56630,20.13,73876.5,14.93,-8.89,-9.97,0,*4A
1536069806.7,56631,20.13,73872.8,14.93,-9.41,-10.49,0,*75
1536069807.91,56632,20.13,73872.3,14.93,-9.27,-10.49,0,*76
1536069809.17,56633,20.13,73870.5,14.91,-9.15,-10.23,0,*78
1536069810.4,56634,20.13,73870.5,14.91,-8.89,-10.05,0,*7F
1536069811.63,56635,20.13,73870.8,14.91,-9.23,-10.35,0,*7C
1536069812.86,56636,20.13,73874.8,14.93,-9.27,-10.41,0,*7A
1536069814.11,56637,20.13,73870.5,14.93,-9.57,-10.67,0,*78
1536069815.34,56638,20.13,73872.3,14.93,-9.45,-10.53,0,*73
1536069816.54,56639,20.13,73874.5,14.93,-9.23,-10.27,0,*71
1536069817.76,56640,20.13,73872.3,14.93,-9.01,-10.19,0,*72
1536069818.97,56641,20.13,73874.0,14.93,-9.23,-10.35,0,*7D
1536069820.17,56642,20.13,73874.3,14.93,-9.01,-10.05,0,*7D
1536069821.38,56643,20.13,73874.5,14.93,-8.89,-10.05,0,*7D
1536069822.61,56644,20.13,73874.5,14.93,-9.27,-10.41,0,*7F
1536069823.82,56645,20.13,73874.8,14.93,-9.27,-10.49,0,*76
1536069825.05,56646,20.13,73872.8,14.93,-9.41,-10.53,0,*7E
1536069826.24,56647,20.13,73872.0,14.93,-9.93,-11.11,0,*77
1536069827.43,56648,20.13,73872.8,14.93,-10.05,-11.19,0,*47
1536069828.67,56649,20.13,73872.3,14.91,-10.35,-11.45,0,*4E
1536069829.92,56650,20.13,73872.5,14.89,-9.49,-10.67,0,*7D
1536069831.17,56651,20.13,73872.3,14.87,-9.53,-10.57,0,*7A
1536069832.43,56652,20.13,73872.8,14.89,-9.45,-10.67,0,*73
1536069833.65,56653,20.13,73872.3,14.89,-9.61,-10.45,0,*74
1536069834.9,56654,20.13,73868.0,14.87,-9.53,-10.57,0,*7F
1536069836.13,56655,20.13,73872.3,14.87,-10.05,-10.97,0,*49
1536069837.41,56656,20.13,73874.8,14.87,-10.71,-11.81,0,*4F
1536069838.69,56657,20.13,73874.3,14.87,-11.59,-12.61,0,*48
1536069839.95,56658,20.13,73872.5,14.83,-11.01,-11.97,0,*44
1536069841.21,56659,20.13,73870.8,14.79,-10.57,-11.63,0,*49
1536069842.46,56660,20.13,73868.8,14.79,-10.57,-11.55,0,*46
1536069843.71,56661,20.13,73870.0,14.79,-10.35,-11.37,0,*47
1536069844.94,56662,20.13,73872.0,14.75,-10.19,-11.19,0,*4A
1536069846.17,56663,20.13,73868.5,14.75,-10.31,-11.45,0,*48
1536069847.42,56664,20.13,73872.8,14.75,-10.31,-11.37,0,*4A
1536069848.68,56665,20.13,73868.0,14.71,-9.71,-10.79,0,*78
1536069849.88,56666,20.13,73872.8,14.69,-9.19,-10.23,0,*73
1536069851.11,56667,20.13,73874.8,14.69,-9.75,-10.71,0,*7F
1536069852.33,56668,20.13,73870.0,14.71,-9.67,-10.57,0,*7E
1536069853.54,56669,20.13,73868.3,14.69,-10.57,-11.41,0,*4B
1536069854.8,56670,20.13,73874.3,14.69,-10.41,-11.37,0,*45
1536069856.0,56671,20.13,73874.0,14.69,-10.01,-11.11,0,*44
1536069857.2,56672,20.13,73872.5,14.69,-9.75,-10.85,0,*70
1536069858.4,56673,20.13,73872.0,14.69,-9.71,-10.85,0,*75
1536069859.61,56674,20.13,73872.8,14.69,-10.27,-11.41,0,*40
1536069860.84,56675,20.13,73874.8,14.67,-10.27,-11.23,0,*4B
1536069862.04,56676,20.13,73872.8,14.65,-10.31,-11.45,0,*4D
1536069863.3,56677,20.13,73872.8,14.65,-10.71,-11.93,0,*43
1536069864.52,56678,20.13,73870.5,14.65,-10.57,-11.81,0,*4B
1536069865.77,56679,20.13,73872.5,14.61,-11.37,-12.61,0,*44
1536069867.0,56680,20.13,73874.5,14.61,-12.03,-13.29,0,*4B
1536069868.28,56681,20.13,73872.5,14.59,-12.07,-13.33,0,*4E
1536069869.51,56682,20.13,73868.8,14.55,-12.25,-13.23,0,*40
1536069870.75,56683,20.13,73870.3,14.53,-11.89,-12.89,0,*43
1536069871.98,56684,20.13,73872.3,14.47,-11.15,-12.35,0,*43
1536069873.22,56685,20.13,73872.3,14.47,-11.55,-12.65,0,*43
1536069874.45,56686,20.19,73872.8,14.47,-11.23,-12.35,0,*44
1536069875.68,56687,20.19,73874.0,14.43,-10.85,-11.89,0,*48
1536069876.91,56688,20.13,73872.8,14.43,-11.89,-13.11,0,*49
1536069878.14,56689,20.13,73874.0,14.41,-12.29,-13.43,0,*44
1536069879.39,56690,20.19,73874.3,14.39,-11.51,-12.79,0,*47
1536069880.65,56691,20.13,73872.8,14.37,-11.41,-12.61,0,*40
1536069881.88,56692,20.13,73872.0,14.35,-10.89,-12.11,0,*43
1536069883.11,56693,20.19,73874.0,14.35,-10.35,-11.59,0,*4A
1536069884.36,56694,20.13,73872.5,14.33,-10.89,-12.15,0,*47
1536069885.58,56695,20.13,73872.3,14.31,-11.01,-12.29,0,*4A
1536069886.87,56696,20.19,73874.0,14.25,-10.67,-11.93,0,*4F
1536069888.09,56697,20.13,73874.3,14.27,-10.53,-11.81,0,*48
1536069889.32,56698,20.13,73868.8,14.25,-9.71,-11.11,0,*74
1536069890.53,56699,20.13,73872.0,14.23,-9.93,-11.29,0,*74
1536069891.79,56700,20.19,73874.0,14.23,-9.37,-10.63,0,*74
1536069893.02,56701,20.13,73868.5,14.23,-9.23,-10.63,0,*70
1536069894.31,56702,20.13,73874.8,14.21,-9.37,-10.75,0,*73
1536069895.52,56703,20.13,73874.8,14.17,-9.89,-11.51,0,*75
1536069896.73,56704,20.13,73874.3,14.17,-9.61,-11.11,0,*70
1536069897.93,56705,20.13,73872.8,14.13,-8.67,-10.15,0,*77
1536069899.14,56706,20.19,73872.3,14.13,-8.37,-10.01,0,*74
1536069900.38,56707,20.13,73868.0,14.11,-7.77,-9.27,0,*40
1536069901.64,56708,20.13,73868.0,14.11,-7.61,-9.11,0,*4D
1536069902.86,56709,20.19,73872.0,14.09,-6.97,-8.21,0,*4F
1536069904.04,56710,20.19,73874.5,14.09,-7.15,-8.55,0,*4F
1536069905.28,56711,20.13,73874.3,14.03,-6.89,-8.11,0,*40
1536069906.49,56712,20.13,73872.8,14.03,-6.69,-7.83,0,*49
1536069907.75,56713,20.13,73870.8,14.03,-6.27,-7.31,0,*4B
1536069908.99,56714,20.19,73874.3,14.03,-6.09,-6.93,0,*49
1536069910.25,56715,20.13,73870.0,14.03,-6.27,-7.01,0,*4E
1536069911.47,56716,20.13,73872.0,13.99,-6.55,-7.49,0,*40
1536069912.74,56717,20.13,73870.3,13.95,-6.23,-7.01,0,*40
1536069913.98,56718,20.19,73870.8,13.97,-5.69,-6.19,0,*48
1536069915.23,56719,20.19,73874.8,13.95,-5.55,-5.69,0,*40
1536069916.51,56720,20.19,73872.0,13.95,-5.07,-5.19,0,*4A
1536069917.73,56721,20.13,73868.8,13.95,-4.65,-4.49,0,*4A
1536069918.97,56722,20.19,73876.0,13.95,-4.89,-4.49,0,*4B
1536069920.21,56723,20.19,73872.3,13.95,-4.81,-4.29,0,*44
1536069921.46,56724,20.13,73868.8,13.91,-5.03,-4.25,0,*40
1536069922.69,56725,20.19,73876.3,13.93,-5.31,-4.41,0,*40
1536069923.93,56726,20.13,73870.0,13.91,-6.05,-5.15,0,*45
1536069925.18,56727,20.19,73874.3,13.91,-5.65,-4.57,0,*46
1536069926.43,56728,20.19,73876.0,13.91,-6.05,-4.89,0,*4F
1536069927.65,56729,20.19,73872.0,13.87,-6.59,-5.27,0,*45
1536069928.89,56730,20.19,73874.0,13.87,-7.27,-5.73,0,*44
1536069930.15,56731,20.19,73872.0,13.81,-7.31,-5.81,0,*49
1536069931.37,56732,20.19,73872.0,13.81,-7.53,-6.13,0,*46
1536069932.61,56733,20.13,73872.8,13.79,-7.39,-5.93,0,*47
1536069933.85,56734,20.13,73870.0,13.79,-7.31,-5.81,0,*4B
1536069935.1,56735,20.13,73872.3,13.77,-7.11,-5.73,0,*4B
1536069936.35,56736,20.19,73872.8,13.75,-7.35,-5.93,0,*42
1536069937.58,56737,20.19,73874.3,13.75,-6.47,-5.03,0,*4E
1536069938.83,56738,20.19,73874.5,13.73,-7.19,-5.73,0,*4A
1536069940.07,56739,20.19,73874.3,13.71,-6.63,-5.23,0,*40
1536069941.29,56740,20.13,73872.0,13.71,-6.69,-5.23,0,*44
1536069942.54,56741,20.19,73872.0,13.69,-6.73,-5.23,0,*47
1536069943.82,56742,20.19,73872.0,13.69,-6.19,-4.81,0,*41
1536069945.02,56743,20.19,73874.5,13.67,-6.85,-5.39,0,*49
1536069946.25,56744,20.13,73872.3,13.67,-6.77,-5.27,0,*4C
1536069947.5,56745,20.19,73874.5,13.65,-6.93,-5.47,0,*43
1536069948.74,56746,20.19,73874.5,13.65,-7.01,-5.43,0,*4E
1536069949.99,56747,20.19,73874.3,13.59,-6.63,-5.15,0,*46
1536069951.24,56748,20.19,73874.8,13.59,-6.19,-4.69,0,*4E
1536069952.46,56749,20.19,73874.3,13.59,-6.43,-4.93,0,*45
1536069953.71,56750,20.19,73874.8,13.59,-6.19,-4.73,0,*4C
1536069954.95,56751,20.19,73874.3,13.57,-6.23,-4.99,0,*4E
1536069956.2,56752,20.19,73876.8,13.57,-5.81,-4.49,0,*4B
1536069957.42,56753,20.19,73874.5,13.57,-5.39,-4.13,0,*46
1536069958.64,56754,20.19,73874.3,13.55,-5.43,-4.13,0,*4E
1536069959.86,56755,20.19,73872.0,13.55,-5.43,-4.21,0,*4E
1536069961.11,56756,20.19,73872.0,13.55,-5.15,-4.21,0,*4E
1536069962.36,56757,20.19,73876.0,13.57,-5.15,-4.29,0,*45
1536069963.6,56758,20.19,73878.3,13.55,-5.19,-4.53,0,*49
1536069964.79,56759,20.19,73876.3,13.53,-4.53,-3.91,0,*48
1536069965.99,56760,20.19,73874.0,13.53,-4.25,-3.75,0,*49
1536069967.21,56761,20.19,73872.5,13.53,-4.29,-4.01,0,*40
1536069968.43,56762,20.19,73872.0,13.53,-3.79,-3.55,0,*47
1536069969.64,56763,20.19,73874.5,13.55,-3.23,-3.19,0,*47
1536069970.85,56764,20.19,73874.3,13.55,-3.31,-3.23,0,*4A
1536069972.06,56765,20.19,73874.0,13.55,-3.07,-3.11,0,*4F
1536069973.32,56766,20.19,73876.8,13.55,-3.43,-3.63,0,*49
1536069974.53,56767,20.19,73874.3,13.55,-2.87,-3.19,0,*4C
1536069975.77,56768,20.19,73876.0,13.55,-3.19,-3.51,0,*49
1536069976.96,56769,20.19,73876.8,13.53,-2.91,-3.35,0,*4D
1536069978.15,56770,20.19,73872.0,13.53,-2.23,-2.79,0,*45
1536069979.33,56771,20.19,73876.5,13.53,-2.39,-3.11,0,*40
1536069980.6,56772,20.19,73872.8,13.51,-2.03,-2.75,0,*4B
1536069981.84,56773,20.19,73874.3,13.51,-2.55,-3.27,0,*4F
1536069983.05,56774,20.19,73872.0,13.51,-2.39,-3.19,0,*4F
1536069984.29,56775,20.19,73876.8,13.53,-1.91,-2.75,0,*46
1536069985.53,56776,20.19,73876.8,13.51,-1.79,-2.67,0,*42
1536069986.75,56777,20.19,73874.5,13.51,-1.21,-2.15,0,*4B
1536069987.99,56778,20.19,73874.5,13.51,-1.13,-2.15,0,*45
1536069989.2,56779,20.19,73874.3,13.51,-1.33,-2.39,0,*48
1536069990.47,56780,20.19,73872.0,13.51,-1.13,-2.03,0,*45
1536069991.68,56781,20.19,73872.3,13.51,-0.41,-1.63,0,*77
1536069992.89,56782,20.19,73876.8,13.51,-0.53,-1.75,0,*70
1536069994.12,56783,20.19,73872.8,13.51,-0.03,-1.13,0,*44
1536069995.33,56784,20.19,73872.8,13.51,0.05,-0.93,0,*51
1536069996.53,56785,20.19,73872.8,13.49,0.21,-0.77,0,*65
1536069997.73,56786,20.19,73876.0,13.49,0.29,-0.53,0,*68
1536069998.92,56787,20.19,73876.0,13.49,0.71,-0.03,0,*51
1536070000.15,56788,20.19,73872.8,13.49,1.51,0.83,0,*78
1536070001.35,56789,20.19,73876.8,13.49,1.01,0.59,0,*7B
1536070002.57,56790,20.19,73876.3,13.49,0.79,0.47,0,*42
1536070003.79,56791,20.19,73874.5,13.49,0.47,0.41,0,*48
1536070005.03,56792,20.19,73876.0,13.47,0.67,0.55,0,*42
1536070006.25,56793,20.19,73874.5,13.49,0.83,0.71,0,*41
1536070007.45,56794,20.19,73876.0,13.49,1.05,0.91,0,*77
1536070008.68,56795,20.19,73874.3,13.49,1.17,0.95,0,*71
1536070009.94,56796,20.19,73876.3,13.47,1.29,1.09,0,*45
1536070011.17,56797,20.19,73872.8,13.51,1.75,1.51,0,*47
1536070012.37,56798,20.19,73878.3,13.49,1.79,1.63,0,*4C
1536070013.59,56799,20.19,73878.3,13.49,1.89,1.67,0,*46
1536070014.81,56800,20.19,73876.3,13.49,1.67,1.43,0,*4F
1536070016.04,56801,20.19,73874.8,13.49,1.43,1.29,0,*44
1536070017.26,56802,20.19,73876.3,13.49,1.97,1.89,0,*44
1536070018.48,56803,20.19,73876.3,13.47,1.51,1.41,0,*45
1536070019.71,56804,20.19,73872.8,13.49,1.63,1.55,0,*48
1536070020.96,56805,20.19,73876.3,13.47,1.59,1.47,0,*4D
1536070022.19,56806,20.19,73878.3,13.47,1.75,1.63,0,*46
1536070023.37,56807,20.19,73876.0,13.49,1.79,1.75,0,*42
1536070024.59,56808,20.19,73874.3,13.45,1.59,1.67,0,*40
1536070025.82,56809,20.19,73874.0,13.45,1.93,1.97,0,*48
1536070027.04,56810,20.19,73878.3,13.45,2.21,2.43,0,*40
1536070028.24,56811,20.19,73874.8,13.45,2.09,2.27,0,*49
1536070029.49,56812,20.19,73878.0,13.43,2.55,2.69,0,*4F
1536070030.7,56813,20.19,73874.8,13.45,2.91,3.11,0,*4E
1536070031.91,56814,20.19,73874.8,13.45,2.65,2.81,0,*4A
1536070033.14,56815,20.19,73874.8,13.45,2.05,2.21,0,*47
1536070034.34,56816,20.19,73874.3,13.45,2.55,2.65,0,*41
1536070035.6,56817,20.19,73878.8,13.43,2.43,2.69,0,*4D
1536070036.8,56818,20.19,73876.3,13.45,2.65,2.69,0,*40
1536070038.01,56819,20.19,73876.8,13.45,2.27,2.51,0,*4C
1536070039.24,56820,20.19,73874.5,13.43,2.99,3.03,0,*43
1536070040.47,56821,20.19,73872.3,13.43,2.99,3.15,0,*45
1536070041.7,56822,20.19,73874.5,13.43,2.61,2.89,0,*45
1536070042.95,56823,20.19,73876.5,13.43,2.43,2.69,0,*4A
1536070044.16,56824,20.19,73876.0,13.43,2.65,2.99,0,*46
1536070045.4,56825,20.19,73876.0,13.41,3.07,3.37,0,*45
1536070046.62,56826,20.19,73876.0,13.41,2.73,3.11,0,*40
1536070047.85,56827,20.19,73878.3,13.41,2.85,3.33,0,*48
1536070049.08,56828,20.19,73878.5,13.37,2.85,3.53,0,*40
1536070050.29,56829,20.19,73876.0,13.41,3.11,3.81,0,*43
1536070051.49,56830,20.19,73876.8,13.37,2.91,3.53,0,*4C
1536070052.72,56831,20.19,73874.0,13.37,2.85,3.75,0,*4C
1536070053.95,56832,20.19,73876.0,13.37,3.03,4.01,0,*44
1536070055.19,56833,20.19,73876.8,13.37,2.81,3.75,0,*4A
1536070056.36,56834,20.19,73878.5,13.37,2.61,3.55,0,*41
1536070057.57,56835,20.19,73876.3,13.37,2.61,3.75,0,*42
1536070058.8,56836,20.19,73876.8,13.37,1.89,3.03,0,*45
1536070060.05,56837,20.19,73876.5,13.35,2.47,3.67,0,*45
1536070061.27,56838,20.19,73874.3,13.35,2.35,3.53,0,*48
1536070062.52,56839,20.19,73876.3,13.35,2.69,4.01,0,*40
1536070063.72,56840,20.19,73878.3,13.33,2.59,3.85,0,*40
1536070064.95,56841,20.19,73878.5,13.33,2.59,3.75,0,*4E
1536070066.15,56842,20.19,73876.8,13.35,2.61,3.85,0,*4F
1536070067.36,56843,20.19,73878.3,13.33,2.59,3.81,0,*47
1536070068.6,56844,20.19,73876.0,13.33,2.51,3.75,0,*43
1536070069.8,56845,20.19,73878.3,13.33,2.55,3.93,0,*4E
1536070071.05,56846,20.19,73874.8,13.35,2.43,3.67,0,*47
1536070072.25,56847,20.19,73882.3,13.33,2.21,3.59,0,*49
1536070073.51,56848,20.19,73878.3,13.31,2.51,3.97,0,*41
1536070074.72,56849,20.19,73876.0,13.29,2.35,4.01,0,*43
1536070075.95,56850,20.19,73876.8,13.29,2.17,3.79,0,*43
1536070077.22,56851,20.19,73876.3,13.31,2.17,3.67,0,*44
1536070078.45,56852,20.19,73878.8,13.29,1.55,3.23,0,*4B
1536070079.68,56853,20.19,73882.0,13.31,1.83,3.53,0,*4F
1536070080.92,56854,20.19,73876.8,13.29,1.63,3.33,0,*49
1536070082.18,56855,20.19,73878.8,13.27,1.13,2.85,0,*4D
1536070083.41,56856,20.19,73876.5,13.27,1.37,2.95,0,*49
1536070084.65,56857,20.19,73876.3,13.25,0.91,2.59,0,*77
1536070085.86,56858,20.19,73878.3,13.25,0.83,2.65,0,*74
1536070087.08,56859,20.19,73874.8,13.25,0.63,2.55,0,*78
1536070088.3,56860,20.19,73878.3,13.23,0.47,2.39,0,*78
1536070089.55,56861,20.19,73876.5,13.21,0.25,2.13,0,*77
1536070090.8,56862,20.19,73874.3,13.21,0.13,2.05,0,*76
1536070091.99,56863,20.19,73878.8,13.19,-0.03,1.93,0,*6C
1536070093.21,56864,20.19,73876.8,13.19,-0.27,1.71,0,*51
1536070094.44,56865,20.19,73878.3,13.17,-0.41,1.51,0,*5C
1536070095.66,56866,20.19,73876.5,13.17,-0.07,1.97,0,*67
1536070096.86,56867,20.19,73878.0,13.11,-0.49,1.59,0,*58
1536070098.06,56868,20.19,73878.0,13.11,-0.37,1.63,0,*57
1536070099.3,56869,20.19,73878.5,13.09,-0.73,1.33,0,*5A
1536070100.55,56870,20.19,73878.3,13.09,-1.01,1.05,0,*63
1536070101.76,56871,20.19,73880.0,13.07,-0.97,1.05,0,*52
1536070103.0,56872,20.19,73876.8,13.05,-1.05,1.05,0,*69
1536070104.24,56873,20.19,73876.8,13.03,-1.01,1.09,0,*66
1536070105.45,56874,20.19,73878.3,13.03,-1.25,0.87,0,*50
1536070106.71,56875,20.19,73876.0,13.01,-1.13,0.95,0,*55
1536070107.97,56876,20.19,73878.5,13.01,-1.35,0.63,0,*5B